DELTA 1 DEB, 10478

Orbit data source: Space-Track

DELTA 1 DEB, 10478 is space debris in LEO originally from a launch on Thu, 14 Jul 1977 UTC launched from the Air Force Eastern Test Range (AFETR). Debris objects in space refer to the collection of defunct objects orbiting the Earth. Examples of debris include non-operational satellites, rocket bodies, and fragments generated from explosions, collisions, or faulty payload assembly.

Loading next visibility...
Identifier
10478, 1977-065EL
Orbit
LEO
Country
Flag of USUS
Related business
Manufacturer
Unknown
Mission
Spacecraft
Bus & Motor
Unknown
Mass
Unknown
Launch date (UTC)
1977-07-14 (48 years ago)
Launch vehicle
Unknown
Launch site
Air Force Eastern Test Range (AFETR)
Object type
Payload
Rocket body
Debris
Shape & HBR
Unknown shape, 0.1 m
Radar Cross Section
Small (<0.1 m²)

Expand to show TLE details & history
Last TLE update: 9 hours ago

TLE from 9 hours ago
0 DELTA 1 DEB
1 10478U 77065EL  25352.93896783  .00003901  00000-0  47355-3 0  9995
2 10478  29.2542 206.6413 0436892 263.5991  91.4680 14.31354400411778
Epoch: 2025-12-18T22:32Z
TLE epoch observation values (Epoch: 2025-12-18T22:32:06.820Z)
Latitude
-0.00002°
Longitude
140.82557°
Altitude
807.243 km
Speed
7.441 km/s
True Right ascension
13h 46m 33s
True Declination
0° 00' 00"
Sunlit
Object was in daylight at epoch
Visualization orbit readout
Latitude
Unknown
Longitude
Unknown
Altitude
Unknown
Speed
Unknown
Apparent Right ascension
Unknown
Apparent Declination
Unknown
Sunlit
N/A
Visualization observer readout
Local Sidereal Time
06:15:36
Azimuth
Unknown
Elevation
Unknown
Doppler factor
Unknown
Orbital elements
Apogee altitude
1,104.39 km
Perigee altitude
477.948 km
Semi-major axis
7,169.306 km
Eccentricity
0.04369
Inclination
29.2542°
RAAN
206.6413°
Arg. of periapsis
263.5991°
True anomaly
96.45946°
Mean anomaly
91.468°
Eccentric anomaly
93.96521°
Mean motion
3.57542 °/min
Orbital period
100.69 mins
BSTAR
0.00047355
Loading maneuver chart data...
Computing Atmospheric mass density...

Documentation

Showing up to 5 results
|